| time (UTC) | temp F | wind direction | speed MPH | gust MPH | rain 1hr in | rain 24hr in | rain mn in | humidity % | barometer mb |
| 20260505024529 | 56 | 0.0 | 2.0 | 0.00 | 0.01 | 0.01 | 1009.7 | ||
| 20260505023525 | 56 | 0.0 | 2.0 | 0.01 | 0.01 | 0.01 | 1009.7 | ||
| 20260505022521 | 56 | 0.0 | 2.0 | 0.01 | 0.01 | 0.01 | 1009.8 | ||
| 20260505021518 | 56 | 0.0 | 2.0 | 0.01 | 0.01 | 0.01 | 1010.1 | ||
| 20260505020614 | 56 | 0.0 | 0.0 | 0.01 | 0.01 | 0.01 | 1010.4 | ||
| 20260505015610 | 57 | 160 | 1.0 | 4.0 | 0.01 | 0.01 | 0.01 | 1010.5 | |
| 20260505014606 | 57 | 0.0 | 0.0 | 0.01 | 0.01 | 0.01 | 1010.6 | ||
| 20260505013602 | 57 | 0.0 | 0.0 | 0.00 | 0.00 | 0.00 | 1010.6 | ||
| 20260505012559 | 58 | 0.0 | 0.0 | 0.00 | 0.00 | 0.00 | 1010.6 | ||
| 20260505011555 | 58 | 0.0 | 0.0 | 0.00 | 0.00 | 0.00 | 1010.8 | ||
| 20260505010551 | 58 | 0.0 | 0.0 | 0.00 | 0.00 | 0.00 | 1010.8 | ||
| 20260505005548 | 59 | 0.0 | 0.0 | 0.00 | 0.00 | 0.00 | 1010.9 | ||
| 20260505004543 | 59 | 0.0 | 0.0 | 0.00 | 0.00 | 0.00 | 1011.0 | ||
| 20260505003540 | 59 | 0.0 | 0.0 | 0.00 | 0.00 | 0.00 | 1010.9 | ||
| 20260505002536 | 59 | 315 | 0.0 | 2.0 | 0.00 | 0.00 | 0.00 | 1010.8 | |
| 20260505001532 | 59 | 0.0 | 0.0 | 0.00 | 0.00 | 0.00 | 1011.0 | ||
| 20260505000529 | 60 | 0.0 | 0.0 | 0.00 | 0.00 | 0.00 | 1010.9 | ||
| 20260504235525 | 60 | 0.0 | 2.0 | 0.00 | 0.00 | 0.00 | 1010.9 | ||
| 20260504234521 | 60 | 280 | 1.0 | 3.0 | 0.00 | 0.00 | 0.00 | 1011.0 | |
| 20260504233518 | 60 | 7 | 1.0 | 4.0 | 0.00 | 0.00 | 0.00 | 1011.0 | |
| 20260504232614 | 60 | 332 | 2.0 | 5.0 | 0.00 | 0.00 | 0.00 | 1011.0 | |
| 20260504231611 | 60 | 347 | 1.0 | 4.0 | 0.00 | 0.00 | 0.00 | 1011.1 | |
| 20260504230606 | 60 | 0.0 | 1.0 | 0.00 | 0.00 | 0.00 | 1011.2 | ||
| 20260504225603 | 60 | 357 | 1.0 | 4.0 | 0.00 | 0.00 | 0.00 | 1011.3 | |
| 20260504224559 | 60 | 13 | 1.0 | 4.0 | 0.00 | 0.00 | 0.00 | 1011.3 | |
| 20260504223555 | 61 | 346 | 1.0 | 4.0 | 0.00 | 0.00 | 0.00 | 1011.6 | |
| 20260504222552 | 61 | 336 | 0.0 | 3.0 | 0.00 | 0.00 | 0.00 | 1011.6 | |
| 20260504221547 | 61 | 351 | 1.0 | 4.0 | 0.00 | 0.00 | 0.00 | 1011.6 | |
| 20260504220544 | 62 | 0 | 2.0 | 4.0 | 0.00 | 0.00 | 0.00 | 1011.8 | |
| 20260504215540 | 62 | 327 | 1.0 | 4.0 | 0.00 | 0.00 | 0.00 | 1011.7 | |
| 20260504214536 | 62 | 347 | 1.0 | 3.0 | 0.00 | 0.00 | 0.00 | 1011.8 | |
| 20260504213533 | 62 | 0.0 | 0.0 | 0.00 | 0.00 | 0.00 | 1011.9 | ||
| 20260504212529 | 62 | 0.0 | 1.0 | 0.00 | 0.00 | 0.00 | 1012.0 | ||
| 20260504211525 | 62 | 315 | 0.0 | 2.0 | 0.00 | 0.00 | 0.00 | 1012.0 | |
| 20260504210521 | 62 | 0.0 | 2.0 | 0.00 | 0.00 | 0.00 | 1011.8 | ||
| 20260504205518 | 63 | 11 | 0.0 | 2.0 | 0.00 | 0.00 | 0.00 | 1011.7 | |
| 20260504204614 | 63 | 338 | 1.0 | 3.0 | 0.00 | 0.00 | 0.00 | 1011.6 | |
| 20260504203611 | 63 | 0 | 0.0 | 3.0 | 0.00 | 0.00 | 0.00 | 1011.6 | |
| 20260504202607 | 63 | 0 | 1.0 | 4.0 | 0.00 | 0.00 | 0.00 | 1011.7 | |
| 20260504201603 | 63 | 0.0 | 3.0 | 0.00 | 0.00 | 0.00 | 1011.7 | ||
| 20260504195556 | 64 | 349 | 1.0 | 4.0 | 0.00 | 0.00 | 0.00 | 1011.6 | |
| 20260504194552 | 64 | 0 | 0.0 | 3.0 | 0.00 | 0.00 | 0.00 | 1011.8 | |
| 20260504193549 | 64 | 0 | 1.0 | 4.0 | 0.00 | 0.00 | 0.00 | 1011.7 | |
| 20260504192545 | 65 | 0 | 0.0 | 3.0 | 0.00 | 0.00 | 0.00 | 1011.7 | |
| 20260504191541 | 65 | 40 | 1.0 | 3.0 | 0.00 | 0.00 | 0.00 | 1011.6 | |
| 20260504190537 | 66 | 0 | 2.0 | 5.0 | 0.00 | 0.00 | 0.00 | 1011.5 | |
| 20260504185533 | 66 | 18 | 1.0 | 4.0 | 0.00 | 0.00 | 0.00 | 1011.6 | |
| 20260504184529 | 67 | 0.0 | 2.0 | 0.00 | 0.00 | 0.00 | 1011.4 | ||
| 20260504182522 | 69 | 0.0 | 0.0 | 0.00 | 0.00 | 0.00 | 1011.5 | ||
| 20260504181518 | 69 | 0.0 | 0.0 | 0.00 | 0.00 | 0.00 | 1011.5 | ||
| 20260504180615 | 69 | 0.0 | 0.0 | 0.00 | 0.00 | 0.00 | 1011.4 | ||
| 20260504175611 | 70 | 0.0 | 0.0 | 0.00 | 0.00 | 0.00 | 1011.3 | ||
| 20260504173604 | 70 | 0.0 | 0.0 | 0.00 | 0.00 | 0.00 | 1011.4 | ||
| 20260504172559 | 71 | 0.0 | 0.0 | 0.00 | 0.00 | 0.00 | 1011.3 | ||
| 20260504171555 | 71 | 0.0 | 0.0 | 0.00 | 0.00 | 0.00 | 1011.3 | ||
| 20260504170551 | 71 | 0 | 1.0 | 3.0 | 0.00 | 0.00 | 0.00 | 1011.2 | |
| 20260504150537 | 76 | 180 | 2.0 | 4.0 | 0.00 | 0.00 | 0.00 | 1011.6 | |
| 20260504140614 | 79 | 135 | 3.0 | 5.0 | 0.00 | 0.00 | 0.00 | 1011.8 | |
| 20260504110607 | 77 | 0 | 1.0 | 3.0 | 0.00 | 0.00 | 0.00 | 1013.3 | |
| 20260504100543 | 74 | 270 | 2.0 | 4.0 | 0.00 | 0.00 | 0.00 | 1013.8 | |
| 20260504081532 | 70 | 159 | 2.0 | 5.0 | 0.00 | 0.00 | 0.00 | 1014.5 | |
| 20260504080558 | 70 | 225 | 2.0 | 4.0 | 0.00 | 0.00 | 0.00 | 1014.4 | |
| 20260504050520 | 55 | 0.0 | 0.0 | 0.00 | 0.00 | 0.00 | 1014.1 | ||
| 20260504045516 | 55 | 0.0 | 0.0 | 0.00 | 0.00 | 0.00 | 1014.0 | ||
| 20260504044613 | 55 | 0.0 | 0.0 | 0.00 | 0.00 | 0.00 | 1014.0 | ||
| 20260504042605 | 54 | 0.0 | 0.0 | 0.00 | 0.00 | 0.00 | 1013.9 | ||
| 20260504041601 | 54 | 0.0 | 0.0 | 0.00 | 0.00 | 0.00 | 1013.8 | ||
| 20260504040558 | 54 | 0.0 | 0.0 | 0.00 | 0.00 | 0.00 | 1013.9 | ||
| 20260504035554 | 54 | 0.0 | 0.0 | 0.00 | 0.00 | 0.00 | 1013.8 | ||
| 20260504034550 | 54 | 0.0 | 0.0 | 0.00 | 0.00 | 0.00 | 1013.6 | ||
| 20260504033546 | 54 | 0.0 | 2.0 | 0.00 | 0.00 | 0.00 | 1013.7 | ||
| 20260504032543 | 54 | 0.0 | 0.0 | 0.00 | 0.00 | 0.00 | 1013.6 | ||
| 20260504031539 | 55 | 0.0 | 0.0 | 0.00 | 0.00 | 0.00 | 1013.7 | ||
| 20260504030536 | 55 | 0.0 | 0.0 | 0.00 | 0.00 | 0.00 | 1013.8 | ||
| 20260504025532 | 55 | 0.0 | 0.0 | 0.00 | 0.00 | 0.00 | 1013.8 |